Regional Weather Roundup
Issued by NWS Raleigh/Durham, NC

Home | Current Version | Previous Version | Text Only | Print | Product List | Glossary On
Versions: 1 2 3 4 5 6 7 8 9 10 11 12 13 14 15 16 17 18 19 20 21 22 23 24 25 26 27 28 29 30 31 32 33 34 35 36 37 38 39 40 41 42 43 44 45 46 47 48 49 50
000
ASUS42 KRAH 292010
RWRRAH
NORTH CAROLINA WEATHER ROUNDUP
NATIONAL WEATHER SERVICE RALEIGH NC
400 PM EDT FRI APR 29 2016

NOTE: "FAIR" INDICATES FEW OR NO CLOUDS BELOW 12,000 FEET WITH NO
SIGNIFICANT WEATHER AND/OR OBSTRUCTIONS TO VISIBILITY.

NCZ001-053-055-056-065-067-292100-
WESTERN NORTH CAROLINA

CITY           SKY/WX    TMP DP  RH WIND       PRES   REMARKS
ASHEVILLE      MOSUNNY   81  41  24 MISG      30.01F
JEFFERSON      MOSUNNY   73  42  33 W13G21    30.03F
MORGANTON      SUNNY     85  39  19 S6        29.98F
HICKORY        SUNNY     84  46  26 CALM      29.93F
RUTHERFORDTON  MOSUNNY   85  48  27 SE6       29.95F
MOUNT AIRY     SUNNY     82  50  32 SW5       29.95F
BOONE          SUNNY     73  38  28 NW10G21   30.05F
$$

NCZ021-022-025-041-071-084-088-292100-
CENTRAL NORTH CAROLINA

CITY           SKY/WX    TMP DP  RH WIND       PRES   REMARKS
CHARLOTTE      PTSUNNY   85  50  29 VRB6      29.95F
GREENSBORO     MOSUNNY   82  51  34 VRB7      29.93F
WINSTON-SALEM  SUNNY     81  49  32 W6        29.94F
RALEIGH-DURHAM MOSUNNY   76  60  57 E5        29.97F
FORT BRAGG     SUNNY     82  56  41 CALM      29.94F
FAYETTEVILLE   SUNNY     82  59  45 NE6       29.95F
BURLINGTON     SUNNY     80  53  39 SW8       29.94F
LAURINBURG     MOSUNNY   86  54  33 VRB5      29.94F
$$

NCZ011-015-027-028-043-044-047-080-103-292100-
NORTHEASTERN NORTH CAROLINA

CITY           SKY/WX    TMP DP  RH WIND       PRES   REMARKS
ROCKY MT-WILSO PTSUNNY   68  58  70 NE5       30.00F
GREENVILLE     CLOUDY    64  61  88 N6        30.02S
WASHINGTON     CLOUDY    65  59  79 NW5       29.99S
ELIZABETH CITY CLOUDY    63  57  81 N12       29.99S
MANTEO         NOT AVBL
CAPE HATTERAS  SUNNY     70  61  73 VRB6      29.94S
$$

NCZ078-087-090-091-093-098-101-292100-
SOUTHEASTERN NORTH CAROLINA

CITY           SKY/WX    TMP DP  RH WIND       PRES   REMARKS
LUMBERTON      MOSUNNY   85  59  41 VRB3      29.94F
GOLDSBORO      MOSUNNY   70  61  73 N8        29.98S
KINSTON        PTSUNNY   68  59  73 N9        30.01S
KENANSVILLE    MOSUNNY   72  58  62 N7        30.00S
NEW BERN       CLOUDY    70  59  68 NW9       29.99S
CHERRY POINT   PTSUNNY   71  61  70 N10       29.98S
BEAUFORT       PTSUNNY   74  62  66 NW12      29.95S
JACKSONVILLE   PTSUNNY   74  59  59 N8        29.97R
WILMINGTON     SUNNY     74  63  68 E9        29.96S
$$




USA.gov is the U.S. government's official web portal to all federal, state and local government web resources and services.